Location: Zagreb
(45.8000°N, 16.0000°E)
Time: 00:32:29
(UTC+01:00)

Transit 2A Rocket - Pass Details

Date: 09 October 2020
Orbit: 586 x 916 km, 66.7° (Epoch: 28 October)

Event Time Altitude Azimuth Distance (km) Brightness Sun altitude
Rises 23:00:15 0° 329° (NNW) 3,413 9.1 -45.0°
Reaches altitude 10° 23:02:56 10° 336° (NNW) 2,425 8.1 -45.3°
Enters shadow 23:03:14 11° 337° (NNW) 2,316 8.0 -45.3°
Maximum altitude 23:08:16 45° 48° (NE) 1,041 - -45.9°
Drops below altitude 10° 23:13:05 10° 122° (ESE) 2,198 - -46.3°
Sets 23:15:25 0° 128° (SE) 3,061 - -46.6°
